SCP
2 3 3 3 4 5 6 6 5 4 4 4 4 4 3 3 3 3 3 2 2 2 2 2 2 2 3 3 3 3 3 3 2 2 2 1 1 1 1 1 1 1 1
2 3 3 3 4 6 7 8 7 6 5 4 4 4 3 3 3 3 3 2 2 2 2 2 2 2 3 3 3 3 3 3 2 2 2 1 1 1 1 1 1 1 1
2 2 3 3 5 6 7 8 9 9 7 5 4 4 4 3 3 3 3 2 2 2 2 2 2 2 2 2 2 2 3 2 2 2 2 2 1 1 1 1 1 1 1
3 3 3 3 4 5 7 8 10 10 8 6 5 4 4 4 4 4 3 3 2 2 2 2 2 2 2 2 2 2 2 2 2 2 2 2 1 1 1 1 1 1 1
3 3 4 3 4 5 7 8 10 10 10 8 6 6 5 5 5 5 4 3 2 2 2 2 2 2 2 2 2 2 2 2 2 2 2 1 1 1 1 1 1 1 1
2 3 4 3 3 5 6 8 8 10 10 9 8 7 7 6 5 5 4 3 2 2 1 1 1 2 2 2 2 2 2 3 2 2 2 1 1 1 1 1 1 1 1
2 3 3 3 3 4 5 6 7 8 9 9 8 7 6 5 5 4 3 3 2 1 1 1 1 1 1 2 2 2 2 2 2 2 2 1 1 1 1 1 1 1 1
2 2 3 3 3 4 5 5 6 6 8 9 8 6 4 4 3 3 2 2 1 1 1 1 1 1 1 1 2 2 2 2 2 2 2 1 1 1 1 1 1 1 1
2 2 2 3 3 4 4 5 5 5 6 7 6 4 3 3 2 2 1 1 1 1 1 1 1 1 1 1 1 1 2 2 2 2 1 1 1 1 1 1 1 1 1
2 2 2 3 3 3 4 4 5 6 6 6 5 4 3 2 2 1 1 1 1 1 1 1 1 1 1 1 1 1 1 1 1 1 1 1 1 1 1 1 0 0 0
2 2 3 3 3 3 3 4 5 7 7 6 5 3 3 3 2 1 1 1 1 1 1 1 1 0 0 1 1 1 1 1 1 1 1 1 0 1 1 1 0 0 0
2 2 2 3 3 3 4 4 5 8 9 7 5 3 3 3 2 1 1 1 1 1 1 1 0 0 0 0 1 1 1 1 1 1 1 1 1 1 1 1 1 1 1
2 2 2 2 3 4 4 4 6 8 8 7 5 4 3 3 2 2 2 1 1 1 1 1 0 0 0 0 1 1 1 1 1 1 1 1 1 1 1 1 1 1 1
2 2 2 3 3 4 4 4 5 7 7 5 5 4 3 3 2 2 2 2 1 1 1 0 0 0 0 0 1 0 0 1 1 1 1 1 1 1 1 1 1 1 1
2 3 3 3 4 4 4 4 5 6 5 4 4 4 3 3 2 2 2 2 1 1 1 0 0 0 0 0 0 0 0 1 1 1 1 1 1 1 0 0 1 1 1
3 3 2 2 3 3 3 4 5 5 4 4 3 3 2 2 2 2 2 1 1 1 1 0 0 0 0 0 0 0 0 1 1 1 1 1 1 1 0 0 0 0 1
2 2 1 2 2 2 3 4 5 4 3 3 3 2 1 1 1 1 1 1 1 1 1 1 1 1 0 0 0 0 0 1 1 1 1 1 1 0 0 0 0 0 0
1 1 1 1 1 2 2 3 3 3 3 2 2 1 1 1 1 1 1 1 1 1 1 1 1 1 1 0 0 0 0 0 1 1 1 0 0 0 0 0 0 0 0
1 1 1 1 1 1 1 2 2 2 2 2 1 1 1 1 1 1 1 1 1 1 1 1 1 1 1 0 0 0 0 0 0 0 0 0 0 0 0 0 0 0 0
1 0 1 1 1 1 1 1 1 1 1 1 1 1 1 1 1 1 1 1 1 1 1 1 1 1 1 0 0 0 0 0 0 0 0 0 0 0 0 0 0 0 0
1 1 1 1 1 1 1 0 0 0 0 0 1 1 1 1 1 1 1 1 1 1 1 1 1 1 1 0 0 0 0 0 0 0 0 0 0 0 0 0 0 0 0
0 0 1 1 1 1 0 0 0 0 0 0 1 1 1 1 1 1 1 1 1 1 1 1 1 1 0 0 0 0 0 0 0 0 0 0 0 0 0 0 0 0 0
0 0 0 0 0 0 0 0 0 0 1 1 1 1 1 1 1 2 1 1 1 1 1 1 1 1 1 0 0 0 0 0 0 0 0 0 0 0 0 0 0 0 0
0 0 0 0 0 0 0 0 1 1 1 1 1 1 1 1 2 1 1 1 1 1 1 1 1 1 1 0 0 0 0 0 0 0 0 0 0 0 0 0 0 0 0
0 0 0 0 0 0 0 0 1 1 1 1 1 1 1 1 1 1 1 1 1 0 0 0 0 0 0 0 0 0 0 0 0 0 0 0 1 1 1 1 1 0 0
0 0 0 0 0 0 0 0 1 1 1 1 1 1 1 1 1 1 1 1 0 0 0 0 0 0 0 0 0 0 0 0 0 0 0 1 1 1 1 1 1 0 0
Wind_Speed
3 3 4 4 4 3 3 3 2 2 2 2 2 2 2 1 1 1 1 2 2 2 3 2 2 3 2 3 4 4 5 4 3 5 5 5 6 5 4 5 4 4 5
3 3 4 4 4 4 4 4 3 3 3 2 1 1 1 1 1 1 0 1 2 2 2 2 2 2 3 3 4 4 5 4 3 4 5 4 4 4 4 4 4 4 4
3 4 4 5 4 4 4 3 3 3 2 2 1 1 1 1 1 0 0 0 1 1 1 2 2 2 3 2 3 4 5 4 3 3 4 4 4 3 2 3 3 3 4
3 4 4 5 4 4 4 4 3 3 2 2 2 2 1 1 1 1 0 0 0 1 1 2 2 3 3 3 4 3 4 5 4 2 3 4 4 4 4 3 2 3 5
3 3 4 4 3 3 4 4 4 3 3 2 3 2 1 0 1 0 1 1 1 1 1 2 2 3 3 3 4 3 4 4 4 4 3 4 4 5 5 5 4 4 4
3 3 4 4 3 3 3 3 4 3 3 2 2 2 1 1 1 0 0 1 1 1 1 2 3 4 3 3 4 4 4 4 4 4 4 4 4 4 5 6 6 5 4
2 3 4 4 3 3 3 3 4 3 3 2 2 1 1 2 1 0 1 2 1 1 1 2 3 3 3 4 4 4 4 4 4 5 4 4 5 5 5 6 6 7 5
1 2 3 3 3 3 3 3 3 3 3 2 2 1 1 1 0 1 2 2 2 2 2 3 3 3 4 4 4 4 4 4 5 6 5 5 5 4 5 5 5 6 5
0 1 2 3 3 3 2 3 3 3 2 2 2 1 0 1 1 1 2 2 2 2 2 3 3 4 4 4 5 4 4 4 5 5 5 5 4 4 4 4 5 5 6
1 1 1 2 3 3 3 3 3 2 2 2 2 1 1 0 1 2 3 3 3 2 2 3 3 4 4 4 4 4 3 4 4 4 4 5 4 4 4 4 4 5 6
1 0 1 2 2 3 3 3 3 3 2 2 1 1 0 0 1 1 2 2 2 2 3 3 3 3 4 4 4 5 5 5 4 4 5 5 5 5 5 4 4 4 5
1 0 0 1 2 2 2 3 3 2 2 2 2 1 0 1 1 2 2 2 3 3 3 3 3 4 4 4 5 5 5 5 5 5 5 6 4 4 5 5 5 5 5
1 1 1 2 2 2 2 2 2 2 2 2 2 1 1 1 2 2 2 2 3 3 3 3 3 4 4 4 5 5 6 6 6 6 5 5 5 5 4 5 5 5 5
1 1 1 2 2 2 2 2 2 2 2 2 1 1 1 1 2 1 2 2 3 3 3 3 4 4 4 5 5 5 5 6 6 5 5 5 5 5 5 5 5 5 5
2 1 1 1 1 2 2 2 2 2 2 1 1 1 1 1 1 1 2 2 3 3 3 4 4 4 4 4 5 5 5 5 5 5 4 4 3 4 5 5 6 6 5
2 1 1 1 1 2 3 3 3 2 2 1 1 0 1 1 1 1 2 2 3 3 4 3 4 4 3 4 5 6 5 5 5 4 4 4 3 3 5 6 7 7 7
3 1 1 2 2 2 2 3 2 2 2 1 1 1 0 1 1 2 2 2 3 3 3 3 4 4 4 4 4 5 5 5 5 5 5 4 4 5 5 4 6 6 7
3 2 1 1 2 2 2 2 2 2 2 1 1 1 1 1 1 2 2 2 3 3 3 3 3 3 3 3 3 6 4 4 4 4 4 5 5 6 6 7 6 5 5
2 1 1 1 1 1 2 2 2 2 1 1 1 1 0 0 1 2 2 2 3 3 3 3 3 3 2 2 3 6 4 3 4 4 4 4 5 5 6 7 7 6 6
2 0 1 1 1 1 2 2 2 2 1 1 1 1 0 1 1 2 2 2 2 3 3 3 4 4 4 2 3 5 4 4 4 3 3 2 3 5 6 6 7 7 7
1 0 0 1 1 1 2 3 2 1 1 0 1 0 0 1 1 2 2 2 2 3 3 4 4 3 3 2 2 4 4 5 5 4 4 3 2 5 6 7 7 8 8
1 0 1 1 1 2 2 2 2 1 1 1 1 1 0 1 1 1 2 3 3 3 2 3 3 3 2 2 2 3 5 7 6 5 5 4 4 7 9 7 7 8 8
1 0 1 1 1 2 2 2 1 1 2 1 1 1 0 1 1 1 2 2 2 3 3 3 4 4 3 1 3 4 6 7 6 5 6 8 10 10 9 9 9 8 7
1 1 1 1 1 2 2 2 2 2 2 1 1 1 1 0 0 1 2 3 3 4 4 4 5 5 4 4 4 3 3 5 6 5 6 9 12 10 9 7 6 5 4
1 1 2 2 1 2 1 2 3 3 2 2 1 1 1 0 1 1 2 4 4 4 5 6 6 6 6 7 8 7 6 6 6 7 7 6 5 5 4 4 4 4 4
2 2 2 2 2 2 2 2 3 3 3 3 2 1 1 0 1 1 1 1 3 3 5 6 7 5 5 7 9 8 8 8 7 7 6 5 6 6 5 5 5 4 4
Wind_Direction
175 156 162 167 159 154 159 163 169 167 194 206 213 207 202 215 221 217 226 254 256 242 242 261 245 265 270 278 278 277 270 270 288 282 277 254 238 240 253 261 270 263 264
177 161 169 170 170 169 174 170 171 172 196 195 213 231 243 255 240 241 190 264 263 250 235 263 261 265 268 266 276 276 283 283 276 289 287 275 238 224 242 253 255 270 272
199 176 176 178 180 180 184 174 164 163 175 184 189 171 181 213 213 207 158 317 278 269 289 268 283 285 276 277 276 278 272 281 272 273 286 291 297 307 224 245 259 272 281
200 182 178 179 187 187 177 164 156 159 163 178 183 189 214 225 267 277 80 223 218 242 242 258 262 269 274 278 273 283 279 274 278 264 260 284 309 292 291 257 255 272 273
200 181 171 168 170 173 166 158 156 165 172 176 175 208 228 141 87 45 75 270 214 231 236 259 269 266 270 276 285 285 280 274 279 281 275 266 261 258 278 289 292 279 277
202 184 158 148 153 156 157 156 166 172 173 175 175 202 178 125 101 69 11 261 249 250 263 269 273 268 275 275 274 273 267 276 278 274 268 265 268 268 270 278 282 285 289
207 190 173 159 149 156 161 168 167 163 164 172 173 174 171 176 169 262 281 287 286 274 282 288 279 281 281 276 274 272 279 273 270 267 271 271 271 276 278 278 282 285 287
220 186 172 165 163 159 165 166 159 156 155 154 144 137 168 201 91 333 305 288 295 307 310 284 281 283 282 282 278 271 266 265 265 268 274 271 268 272 271 274 282 284 285
145 174 163 165 163 162 161 164 152 150 152 141 136 139 149 353 3 316 277 288 301 298 294 295 294 291 286 287 283 279 276 271 268 272 269 272 279 274 276 271 271 280 287
60 141 162 162 166 171 163 159 155 154 157 150 155 150 141 67 328 310 304 302 304 312 294 292 296 299 300 292 286 282 284 281 278 284 288 285 285 284 274 269 270 274 278
330 60 160 169 179 176 166 167 169 164 151 144 151 160 162 215 302 302 300 303 304 301 291 293 299 305 303 299 294 293 288 282 288 283 277 279 284 282 281 273 271 273 273
293 51 174 176 192 190 185 174 177 172 162 158 154 142 259 288 301 307 302 303 299 298 298 297 299 305 307 303 298 293 293 289 287 288 289 287 284 281 281 282 280 280 276
271 232 203 199 197 197 198 189 185 173 169 157 153 163 248 286 297 305 306 305 303 305 307 305 304 304 305 301 296 290 288 288 291 292 289 289 289 285 285 285 286 283 278
256 242 210 209 193 195 203 196 182 165 169 166 165 180 253 282 279 290 304 307 303 300 302 302 302 301 303 305 303 299 297 295 294 292 289 288 292 294 293 288 285 284 285
268 242 222 199 192 196 194 179 164 158 175 183 172 194 260 274 266 291 298 297 297 296 299 303 307 307 304 321 323 311 309 306 304 302 298 302 309 313 300 300 304 297 287
275 243 219 216 201 206 193 168 159 161 178 188 208 191 248 281 292 302 309 313 316 318 315 308 310 313 327 6 343 315 312 311 311 314 310 299 273 268 252 261 278 288 290
295 255 228 234 223 208 190 170 160 167 182 191 211 197 232 311 312 315 334 330 326 328 321 318 315 321 348 347 334 319 306 311 317 316 312 313 321 304 297 266 243 254 256
304 284 253 241 221 189 178 172 163 167 181 190 195 193 210 292 325 322 333 330 324 325 318 316 317 319 354 8 336 318 297 307 311 311 309 309 310 324 319 302 293 286 278
319 305 260 226 198 177 180 167 158 163 182 180 188 180 212 307 312 325 335 331 329 333 324 327 332 331 341 2 328 309 300 309 313 313 316 312 314 339 322 299 295 293 289
356 346 171 159 168 167 181 179 171 170 186 219 192 170 236 291 307 329 323 328 322 320 317 336 338 337 334 356 321 307 297 313 311 308 301 311 309 321 320 303 297 294 299
12 28 162 151 157 172 190 190 182 161 174 219 165 151 211 290 315 327 319 311 307 321 324 329 324 323 321 312 308 305 302 314 312 312 312 336 329 297 294 287 283 288 295
12 336 189 161 167 183 197 193 183 159 158 174 181 173 187 305 354 333 324 321 315 302 307 318 316 317 314 311 311 285 281 295 303 305 311 324 313 294 282 272 274 281 280
8 262 212 179 184 188 200 202 174 164 162 167 171 159 216 324 337 318 322 315 310 319 332 331 332 336 341 319 215 244 262 266 277 298 304 292 284 282 268 247 253 261 267
291 249 220 195 185 181 187 195 174 172 174 173 172 190 214 273 27 311 323 328 334 339 338 340 340 341 338 341 345 315 279 253 260 287 283 259 255 254 266 272 254 255 277
250 240 230 222 207 181 186 188 171 176 178 178 187 208 215 358 324 330 336 331 348 349 326 334 333 334 335 352 348 321 314 318 326 315 293 295 303 303 304 305 304 296 279
232 224 224 229 221 197 190 183 179 182 187 192 202 227 235 251 295 308 313 241 257 249 246 259 285 318 323 319 317 308 291 284 286 286 289 306 314 316 319 316 312 308 301